Volver al catálogo

PAYLOAD A

ActivoMilitarSSO
NORAD 39208·PAYLOAD·🇨🇳 China

Lanzado Jul 19, 2013 desde Taiyuan Satellite Launch Center

Loading…

Próximos Pases (próximas 24 horas)

TLE

ActualizadoSource: Space-Track

Época: Sep 14, 2026, 11:23 UTC

1 39208U 13037A   26257.47480091  .00000358  00000-0  64599-4 0  9994
2 39208  98.0936 260.3085 0006937 213.7739 146.3027 14.72370165705348

Sigue PAYLOAD A en tiempo real con AllMySat

Download on the App Store